Le nostre stazioni meteo in Italia

Pubblicità
Il mio iltempo24.it
S. Valentino Alla Muta, Italia (16008): Temperatura & dewpoint: 15.01.2020 03:00:00 - 21.01.2020 03:00:00 (CET)S. Valentino Alla Muta, Italia (16008): velocità del vento: 15.01.2020 03:00:00 - 21.01.2020 03:00:00 (CET)S. Valentino Alla Muta, Italia (16008): direzione del vento: 15.01.2020 03:00:00 - 21.01.2020 03:00:00 (CET)S. Valentino Alla Muta, Italia (16008): visibility: 15.01.2020 03:00:00 - 21.01.2020 03:00:00 (CET)
Data & Tempo tt [°C] td [°C] ff [km/h] ff [kn] dd vv [km]
21.01.2020 03:00:00 -9,0 -13,1 8 4 NNE 30
21.01.2020 02:00:00 -8,8 -13,3 8 4 NNE 30
21.01.2020 01:00:00 -8,8 -13,3 8 4 NNE 30
21.01.2020 00:00:00 -8,0 -13,0 4 2 NNE 30
20.01.2020 23:00:00 -8,0 -13,0 4 2 NNE 30
20.01.2020 22:00:00 -8,0 -13,4 8 4 NNE 30
20.01.2020 21:00:00 -8,0 -13,4 8 4 N 30
20.01.2020 20:00:00 -7,6 -13,4 4 2 NNE 30
20.01.2020 19:00:00 -7,0 -13,0 4 2 NNE 30
20.01.2020 18:00:00 -6,4 -12,7 8 4 NNE 30
20.01.2020 17:00:00 -5,4 -11,7 5 3 N 30
20.01.2020 16:00:00 -4,0 -11,3 5 3 NNE 30
20.01.2020 15:00:00 -2,8 -10,6 5 3 N 30
20.01.2020 14:00:00 -3,0 -10,8 9 5 NNE 30
20.01.2020 13:00:00 -3,4 -10,0 11 6 NNE 30
20.01.2020 12:00:00 -4,4 -10,6 11 6 NNE 30
20.01.2020 11:00:00 -5,0 -10,5 9 5 NNE 20
20.01.2020 10:00:00 -10,0 -13,1 9 5 N 20
20.01.2020 09:00:00 -10,0 -13,3 5 3 N 30
20.01.2020 08:00:00 -10,0 -13,3 5 3 N 30
20.01.2020 07:00:00 -9,6 -13,2 5 3 N 20
20.01.2020 06:00:00 -10,0 -13,0 11 6 N 10
20.01.2020 05:00:00 -9,4 -12,8 11 6 N 10
20.01.2020 04:00:00 -9,0 -12,3 9 5 NNE 10
20.01.2020 03:00:00 -8,0 -12,0 5 3 NNE 10
20.01.2020 02:00:00 -8,0 -11,5 5 3 NNE 10
20.01.2020 01:00:00 -8,0 -11,3 9 5 NNE 10
20.01.2020 00:00:00 -7,4 -11,4 8 4 NNE 10
19.01.2020 23:00:00 -7,0 -11,2 8 4 N 10
19.01.2020 22:00:00 -6,4 -10,6 5 3 NNE 10
19.01.2020 21:00:00 -6,0 -10,4 8 4 NNE 10
19.01.2020 20:00:00 -5,6 -13,0 5 3 NNE 10
19.01.2020 19:00:00 -5,6 -11,3 8 4 NE 12
19.01.2020 18:00:00 -4,6 -11,6 5 3 NNE 12
19.01.2020 17:00:00 -4,4 -11,8 9 5 N 20
19.01.2020 16:00:00 -2,4 -10,9 11 6 NNO 20
19.01.2020 15:00:00 -2,0 -8,1 16 9 N 20
19.01.2020 14:00:00 -1,4 -9,0 11 6 NNE 20
19.01.2020 13:00:00 -1,6 -9,0 13 7 N 20
19.01.2020 12:00:00 -2,6 -9,1 9 5 NE 20
19.01.2020 11:00:00 -5,0 -9,8 11 6 N 20
19.01.2020 10:00:00 -2,6 -5,9 8 4 N 20
19.01.2020 09:00:00 -7,6 -30,0 9 5 N 20
19.01.2020 08:00:00 -7,6 -10,9 8 4 N 20
19.01.2020 07:00:00 -7,6 -10,9 9 5 NNO 10
19.01.2020 06:00:00 -7,4 -10,3 9 5 N 10
19.01.2020 05:00:00 -7,4 -10,3 9 5 N 10
19.01.2020 04:00:00 -7,4 -11,7 11 6 NNE 10
19.01.2020 03:00:00 -6,0 -10,4 11 6 NNE 10
19.01.2020 02:00:00 -5,6 -8,5 8 4 N 10
19.01.2020 01:00:00 -5,6 -8,5 9 5 N 10
19.01.2020 00:00:00 -5,0 -8,2 4 2 N 10
18.01.2020 23:00:00 -5,0 -8,2 5 3 N 10
18.01.2020 22:00:00 -4,0 -8,1 9 5 NE 10
18.01.2020 21:00:00 -4,0 -8,1 9 5 NNE 10
18.01.2020 20:00:00 -3,6 -7,9 8 4 NE 10
18.01.2020 19:00:00 -3,2 -5,8 8 4 NNE 10
18.01.2020 18:00:00 -2,6 -5,6 13 7 NE 10
18.01.2020 17:00:00 -2,0 -5,0 11 6 NE 20
18.01.2020 16:00:00 -1,4 -4,6 13 7 NE 20
18.01.2020 15:00:00 -1,4 -4,4 9 5 NNE 10
18.01.2020 14:00:00 -1,4 -3,9 9 5 NNE 10
18.01.2020 13:00:00 -1,4 -4,6 11 6 NNE 10
18.01.2020 12:00:00 -1,6 -3,8 11 6 NE 10
18.01.2020 11:00:00 -1,8 -4,0 13 7 NE 6
18.01.2020 10:00:00 -2,0 -4,2 9 5 NNE 6
18.01.2020 09:00:00 -2,4 -3,1 9 5 NNE 6
18.01.2020 08:00:00 -2,4 -2,7 11 6 NNE 6
18.01.2020 07:00:00 -2,4 -2,4 11 6 NNE 3,0
18.01.2020 06:00:00 -2,4 -2,4 9 5 NNE 3,0
18.01.2020 05:00:00 -2,4 -2,7 9 5 NNE 6
18.01.2020 04:00:00 -2,4 -3,2 8 4 N 6
18.01.2020 03:00:00 - - - - - -
18.01.2020 02:00:00 - - - - - -
18.01.2020 01:00:00 -4,4 -7,0 5 3 N 10
18.01.2020 00:00:00 -4,2 -7,0 4 2 N 10
17.01.2020 23:00:00 -4,0 -6,9 8 4 NNE 10
17.01.2020 22:00:00 -4,0 -6,8 5 3 N 10
17.01.2020 21:00:00 -3,8 -6,6 5 3 N 10
17.01.2020 20:00:00 -3,4 -6,7 5 3 NNE 10
17.01.2020 19:00:00 -2,6 -6,1 0 0 N 10
17.01.2020 18:00:00 -1,6 -5,3 0 0 N 20
17.01.2020 17:00:00 -0,4 -4,8 4 2 NNE 20
17.01.2020 16:00:00 1,0 -5,5 8 4 OSO 20
17.01.2020 15:00:00 1,2 -5,7 9 5 OSO 20
17.01.2020 14:00:00 2,6 -4,8 8 4 SO 20
17.01.2020 13:00:00 2,2 -5,7 11 6 SO 30
17.01.2020 12:00:00 1,4 -6,2 0 0 N 30
17.01.2020 11:00:00 -0,6 -6,0 8 4 NNE 30
17.01.2020 10:00:00 -6,0 -7,8 0 0 N 30
17.01.2020 09:00:00 -7,2 -9,0 5 3 NNE 20
17.01.2020 08:00:00 -7,2 -9,0 5 3 NNE 10
17.01.2020 07:00:00 -7,2 -9,0 5 3 NNE 10
17.01.2020 06:00:00 -6,4 -8,3 0 0 N 10
17.01.2020 05:00:00 -6,4 -8,3 4 2 N 10
17.01.2020 04:00:00 -5,6 -7,6 0 0 N 10
17.01.2020 03:00:00 -5,6 -7,6 0 0 N 10
17.01.2020 02:00:00 -5,4 -7,5 0 0 N 10
17.01.2020 01:00:00 -5,4 -7,4 4 2 N 10
17.01.2020 00:00:00 -5,0 -7,6 0 0 N 10
16.01.2020 23:00:00 -5,0 -7,6 0 0 N 10
16.01.2020 22:00:00 -4,4 -7,2 0 0 N 10
16.01.2020 21:00:00 -3,2 -6,3 4 2 N 10
16.01.2020 20:00:00 -2,8 -6,1 0 0 N 10
16.01.2020 19:00:00 -2,2 -5,9 4 2 N 10
16.01.2020 18:00:00 -1,2 -6,0 4 2 N 20
16.01.2020 17:00:00 0,0 -4,8 4 2 N 20
16.01.2020 16:00:00 1,6 -4,5 5 3 SSE 20
16.01.2020 15:00:00 2,8 -3,5 13 7 SO 20
16.01.2020 14:00:00 4,2 -3,8 9 5 O 20
16.01.2020 13:00:00 4,4 -3,8 5 3 SSO 20
16.01.2020 12:00:00 2,8 -4,2 8 4 NNE 20
16.01.2020 11:00:00 0,2 -4,8 11 6 NNE 10
16.01.2020 10:00:00 -2,8 -5,9 11 6 NNE 20
16.01.2020 09:00:00 -3,6 -6,4 9 5 N 30
16.01.2020 08:00:00 -3,2 -6,3 9 5 N 20
16.01.2020 07:00:00 -2,4 -6,1 11 6 N 10
16.01.2020 06:00:00 -2,0 -5,8 13 7 N 10
16.01.2020 05:00:00 - - - - - -
16.01.2020 04:00:00 -2,4 -5,9 15 8 N 10
16.01.2020 03:00:00 -3,0 -6,3 15 8 N 10
16.01.2020 02:00:00 -4,0 -6,6 11 6 N 10
16.01.2020 01:00:00 -4,0 -6,5 11 6 N 10
16.01.2020 00:00:00 -5,0 -6,8 5 3 NNE 10
15.01.2020 23:00:00 -4,6 -7,2 5 3 NNE 10
15.01.2020 22:00:00 -4,4 -7,2 11 6 NNE 10
15.01.2020 21:00:00 -4,0 -6,1 8 4 NNE 12
15.01.2020 20:00:00 -3,4 -7,2 4 2 NE 12
15.01.2020 19:00:00 -2,4 -6,7 8 4 NNE 12
15.01.2020 18:00:00 -1,8 -7,1 4 2 SSE 20
15.01.2020 17:00:00 -1,0 -7,1 8 4 SO 20
15.01.2020 16:00:00 -0,4 -7,0 11 6 SSO 20
15.01.2020 15:00:00 1,2 -6,1 11 6 SSO 20
15.01.2020 14:00:00 1,8 -6,3 15 8 SSO 20
15.01.2020 13:00:00 1,6 -6,7 9 5 SSO 20
15.01.2020 12:00:00 0,4 -6,5 11 6 SO 20
15.01.2020 11:00:00 -1,0 -6,0 4 2 S 20
15.01.2020 10:00:00 -5,8 -8,4 0 0 N 20
15.01.2020 09:00:00 -7,2 -9,1 4 2 N 20
15.01.2020 08:00:00 -7,0 -9,2 0 0 N 10
15.01.2020 07:00:00 -6,6 -8,9 0 0 N 10
15.01.2020 06:00:00 -6,6 -9,5 0 0 N 10
15.01.2020 05:00:00 -6,6 -8,8 0 0 N 10
15.01.2020 04:00:00 -6,6 -9,2 4 2 N 10
15.01.2020 03:00:00 -6,4 -8,6 0 0 N 10

tt = Temperatura
td = dewpoint
ff = velocità del vento
dd = direzione del vento
vv = visibility

Stazioni seguenti

WeatherPro
AMSI
MeteoEarth